Location: Lac de la Montange Noire
(46.1952°N, 74.2701°W)
Time: 22:32:37
(UTC-04:00)

Iridium 42 - Visible Passes

Search period start: 27 March 2017 00:00
Search period end: 06 April 2017 00:00
Orbit: 775 x 778 km, 86.4° (Epoch: 26 March)

Date Brightness Start Highest point End Pass type
(mag) Time Alt. Az. Time Alt. Az. Time Alt. Az.
27 Mar 5.8 03:42:06 10° N 03:47:17 61° E 03:47:32 60° E visible
27 Mar 6.9 05:23:59 10° NW 05:27:27 18° WNW 05:27:57 18° W visible
28 Mar 6.8 03:08:31 10° NNE 03:13:18 35° ENE 03:13:32 35° E visible
28 Mar 6.3 04:49:21 10° NNW 04:53:54 31° W 04:53:58 31° W visible
29 Mar 7.6 02:35:18 10° NNE 02:39:11 20° ENE 02:39:34 20° E visible
29 Mar 5.6 04:15:09 10° NNW 04:20:00 54° WNW 04:20:00 54° WNW visible
30 Mar 8.2 02:03:03 10° NE 02:04:54 12° ENE 02:05:38 11° ENE visible
30 Mar 5.6 03:41:12 10° N 03:46:04 76° NNE 03:46:04 76° NNE visible
30 Mar 7.3 05:24:00 10° NW 05:26:23 13° WNW 05:26:30 13° WNW visible
31 Mar 6.4 03:07:29 10° N 03:12:09 47° ENE 03:12:09 47° ENE visible
31 Mar 6.8 04:48:53 10° NNW 04:52:35 23° WNW 04:52:35 23° WNW visible
01 Apr 7.2 02:34:03 10° NNE 02:38:14 27° ENE 02:38:14 27° ENE visible
01 Apr 6.2 04:14:28 10° NNW 04:18:41 38° WNW 04:18:41 38° WNW visible
02 Apr 7.9 02:01:06 10° NNE 02:04:19 16° ENE 02:04:21 16° ENE visible
02 Apr 5.7 03:40:23 10° N 03:44:48 60° NW 03:44:48 60° NW visible
03 Apr 6.1 03:06:33 10° N 03:10:55 56° NE 03:10:55 56° NE visible
03 Apr 7.2 04:48:36 10° NW 04:51:21 17° WNW 04:51:21 17° WNW visible
04 Apr 6.8 02:32:56 10° NNE 02:37:03 35° ENE 02:37:03 35° ENE visible
04 Apr 6.6 04:13:54 10° NNW 04:17:29 28° WNW 04:17:29 28° WNW visible
05 Apr 7.5 01:59:40 10° NNE 02:03:12 22° ENE 02:03:12 22° ENE visible
05 Apr 6.1 03:39:39 10° NNW 03:43:39 44° NW 03:43:39 44° NW visible
